Regional Weather Roundup
Issued by NWS

Home | Current Version | Previous Version | Graphics & Text | Print | Product List | Glossary On
Versions: 1 2 3 4 5 6 7 8 9 10 11 12 13 14 15 16 17 18 19 20 21 22 23 24 25 26 27 28 29 30 31 32 33 34 35 36 37 38 39 40 41 42 43 44 45 46 47 48 49 50
000
ASUS43 KIND 282059
RWRIN

WEATHER ROUNDUP FOR INDIANA
NATIONAL WEATHER SERVICE INDIANAPOLIS IN
500 PM EDT THU AUG 28 2014

NOTE: "FAIR" INDICATES FEW OR NO CLOUDS BELOW 12,000 FEET WITH NO
SIGNIFICANT WEATHER AND/OR OBSTRUCTIONS TO VISIBILITY.

* - STATION DOES NOT REPORT WEATHER SUCH AS PRECIPITATION OR FOG.

+ - STATION NOT QUALITY CONTROLLED BY THE NATIONAL WEATHER SERVICE.
    USE DATA WITH CAUTION...ESPECIALLY DEWPOINT AND RELATIVE
    HUMIDITY OBSERVATIONS.

INZ001>003-010>013-019-020-282200-
NORTHWEST INDIANA

CITY           SKY/WX    TMP DP  RH WIND       PRES   REMARKS
GARY /AIRPORT/ MOSUNNY   75  63  64 NE9       30.07F
KNOX *+        SUNNY     79  61  52 E3        30.06F
MONTICELLO +   SUNNY     80  65  60 E5        30.04F
VALPARAISO     MOSUNNY   80  62  54 VRB5      30.07F

$$

LMZ046-743>745-282200-
SOUTHERN LAKE MICHIGAN

STATION/POSITION TIME  TEMP WIND        PRES
                       AIR  DIR/SP/G
                 (UTC) (F)  (DEG/KT/KT) (MB)
MICHIGAN CITY    2000   69   10/ 13/ 14   N/A

$$

INZ004-005-014>016-021>024-282200-
NORTH CENTRAL INDIANA

CITY           SKY/WX    TMP DP  RH WIND       PRES   REMARKS
ELKHART        MOSUNNY   79  57  47 SE6       30.08F
GOSHEN         MOSUNNY   78  61  55 E5        30.08F
SOUTH BEND     MOSUNNY   79  59  50 CALM      30.08F

$$

INZ006>009-017-018-025>027-282200-
NORTHEAST INDIANA

CITY           SKY/WX    TMP DP  RH WIND       PRES   REMARKS
ANGOLA *+      PTSUNNY   79  73  83 S6        30.09F
FORT WAYNE     PTSUNNY   77  62  59 E6        30.09F

$$

INZ028-029-035-036-043>045-051>053-282200-
WEST CENTRAL INDIANA

CITY           SKY/WX    TMP DP  RH WIND       PRES   REMARKS
GREENCASTLE +  MOSUNNY   82  66  57 SE5       30.04F
LAFAYETTE      SUNNY     81  65  58 E8        30.03F
TERRE HAUTE    SUNNY     84  66  54 E6        30.01F

$$

INZ030>032-037>040-046>048-054>057-064-065-282200-
CENTRAL INDIANA

CITY           SKY/WX    TMP DP  RH WIND       PRES   REMARKS
COLUMBUS       MOSUNNY   84  66  54 E5        30.03F
FRANKFORT +    SUNNY     82  65  57 E6        30.07S
INDIANAPOLIS   MOSUNNY   83  65  54 SE8       30.03F
-EAGLE CREEK   SUNNY     83  62  49 E9        30.03F
KOKOMO *+      MOSUNNY   81  64  57 SE6       30.06S
MT COMFORT *+  SUNNY     82  63  51 E6        30.06S
SHELBYVILLE    MOSUNNY   84  68  58 E8        30.04F

$$

INZ033-034-041-042-049-050-058-059-282200-
EAST CENTRAL INDIANA

CITY           SKY/WX    TMP DP  RH WIND       PRES   REMARKS
MUNCIE         MOSUNNY   80  62  54 SE8       30.07F

$$

INZ060-061-067>069-081>083-085>088-282200-
SOUTHWEST INDIANA

CITY           SKY/WX    TMP DP  RH WIND       PRES   REMARKS
EVANSVILLE     MOSUNNY   90  71  53 E6        29.97F HX  96

$$

INZ062-063-066-070>080-084-089>092-282200-
SOUTH CENTRAL AND SOUTHEAST INDIANA

CITY           SKY/WX    TMP DP  RH WIND       PRES   REMARKS
BLOOMINGTON    MOSUNNY   84  66  54 CALM      30.02F

$$




USA.gov is the U.S. government's official web portal to all federal, state and local government web resources and services.